Newport, RI

7:07 PM EDT on April 25, 2018 (GMT -0400)
Newport State

Weather History for KUUU - December, 2013

Change the Weather History Date:

Sunday, December 29, 2013

  Actual Average Record
Temperature  
Mean Temperature 42 °F -  
Max Temperature 46 °F 41 °F 58 °F (1984)
Min Temperature 37 °F 26 °F 6 °F (2017)
Degree Days  
Heating Degree Days 24    
Moisture  
Dew Point 39 °F    
Average Humidity 88    
Maximum Humidity 97    
Minimum Humidity 67    
Precipitation  
Precipitation 1.20 in - - ()
Sea Level Pressure  
Sea Level Pressure 29.68 in    
Wind  
Wind Speed 7 mph (East)    
Max Wind Speed 21 mph    
Max Gust Speed 32 mph    
Visibility 5 miles    
Events Rain    
Averages and records for this station are not official NWS values.
T = Trace of Precipitation, MM = Missing Value Source: NWS Daily Summary

Daily Weather History Graph

Daily Weather History Graph

Search for Another Location

Airport or City:

Astronomy

Dec. 29, 2013 Rise Set
Actual Time 7:11 AM EST 4:23 PM EST
Civil Twilight 6:39 AM EST 4:54 PM EST
Nautical Twilight 6:04 AM EST 5:29 PM EST
Astronomical Twilight 5:31 AM EST 6:03 PM EST
Moon 3:50 AM EST (12/29) 1:59 PM EST (12/29)
Length of Visible Light 10h 15m
Length of Day
9h 12m
Waning Crescent, 11% of the Moon is Illuminated
Dec 29
Waning Crescent
Jan 1
New
Jan 7
First Quarter
Jan 15
Full
Jan 24
Last Quarter

Hourly Weather History & Observations

Time (EST) Temp. Windchill Dew Point Humidity Pressure Visibility Wind Dir Wind Speed Gust Speed Precip Events Conditions
12:53 AM 41.0 °F 37.1 °F 34.0 °F 76% 30.04 in 10.0 mi SSW 5.8 mph - N/A   Clear
1:53 AM 39.9 °F 36.7 °F 32.0 °F 73% 30.04 in 10.0 mi SSW 4.6 mph - N/A   Clear
2:53 AM 41.0 °F 39.0 °F 30.9 °F 67% 30.04 in 10.0 mi SSW 3.5 mph - N/A   Clear
3:53 AM 39.9 °F - 30.9 °F 70% 30.04 in 10.0 mi Calm Calm - N/A   Clear
4:53 AM 41.0 °F - 30.9 °F 67% 30.02 in 10.0 mi Calm Calm - N/A   Clear
5:53 AM 39.9 °F 35.8 °F 33.1 °F 77% 30.02 in 10.0 mi South 5.8 mph - N/A   Clear
6:53 AM 42.1 °F 39.2 °F 35.1 °F 76% 30.01 in 10.0 mi SSW 4.6 mph - N/A   Clear
7:53 AM 43.0 °F 41.3 °F 37.0 °F 80% 30.01 in 10.0 mi SW 3.5 mph - N/A   Clear
8:53 AM 44.1 °F 42.5 °F 37.0 °F 76% 30.02 in 10.0 mi SW 3.5 mph - N/A   Overcast
9:53 AM 45.0 °F 42.6 °F 37.9 °F 76% 30.02 in 10.0 mi SW 4.6 mph - N/A   Overcast
10:53 AM 45.0 °F 40.6 °F 37.0 °F 74% 29.97 in 10.0 mi SSW 8.1 mph - N/A   Overcast
11:53 AM 45.0 °F 39.7 °F 39.0 °F 80% 29.92 in 10.0 mi SSW 10.4 mph 16.1 mph 0.00 in Rain Light Rain
12:53 PM 45.0 °F 42.6 °F 37.9 °F 76% 29.90 in 7.0 mi Variable 4.6 mph - 0.00 in Rain Light Rain
1:53 PM 44.1 °F - 39.0 °F 82% 29.85 in 4.0 mi Calm Calm - 0.01 in Rain Light Rain
2:53 PM 42.1 °F 38.4 °F 41.0 °F 96% 29.79 in 6.0 mi East 5.8 mph - 0.00 in Rain Light Rain
3:23 PM 41.0 °F 37.1 °F 39.9 °F 96% 29.76 in 2.5 mi East 5.8 mph - 0.01 in Rain Light Rain
3:33 PM 41.0 °F 36.4 °F 39.9 °F 96% 29.75 in 3.0 mi East 6.9 mph - 0.01 in Rain Light Rain
3:51 PM 41.0 °F 35.8 °F 39.2 °F 93% 29.71 in 2.5 mi East 8.1 mph - 0.03 in Rain Light Rain
3:53 PM 41.0 °F 35.2 °F 39.9 °F 96% 29.71 in 2.5 mi East 9.2 mph - 0.03 in Rain Rain
4:01 PM 41.0 °F 34.3 °F 39.9 °F 96% 29.69 in 2.0 mi East 11.5 mph - 0.02 in Rain Rain
4:17 PM 41.0 °F 35.2 °F 39.9 °F 96% 29.67 in 3.0 mi East 9.2 mph - 0.05 in Rain Rain
4:53 PM 42.1 °F 35.7 °F 41.0 °F 96% 29.62 in 2.5 mi East 11.5 mph - 0.19 in Rain Heavy Rain
5:53 PM 44.1 °F 36.2 °F 42.1 °F 93% 29.50 in 2.5 mi East 18.4 mph 28.8 mph 0.26 in Rain Rain
6:12 PM 44.1 °F 35.9 °F 42.1 °F 93% 29.47 in 1.5 mi East 19.6 mph 32.2 mph 0.11 in Rain Heavy Rain
6:53 PM 44.1 °F 37.4 °F 43.0 °F 96% 29.42 in 1.8 mi East 13.8 mph 27.6 mph 0.36 in Rain Heavy Rain
7:06 PM 45.0 °F 39.7 °F 44.1 °F 97% 29.41 in 2.0 mi East 10.4 mph 21.9 mph 0.04 in Rain Heavy Rain
7:14 PM 45.0 °F - 44.1 °F 97% 29.40 in 1.5 mi North - - 0.09 in Rain Heavy Rain
7:53 PM 46.0 °F 43.1 °F 45.0 °F 96% 29.36 in 1.2 mi North 5.8 mph - 0.30 in Rain Rain
8:21 PM 44.1 °F 40.1 °F 43.0 °F 96% 29.33 in 2.5 mi North 6.9 mph - 0.05 in Rain Light Rain
8:28 PM 44.1 °F 40.8 °F 43.0 °F 96% 29.34 in 2.5 mi NNW 5.8 mph - 0.05 in Rain Light Rain
8:40 PM 43.0 °F 38.8 °F 42.1 °F 97% 29.33 in 2.5 mi NNW 6.9 mph - 0.05 in Rain Light Rain
8:53 PM 42.1 °F 35.7 °F 41.0 °F 96% 29.33 in 2.5 mi NNW 11.5 mph - 0.05 in Rain Light Rain
9:01 PM 42.1 °F 35.2 °F 41.0 °F 96% 29.32 in 4.0 mi North 12.7 mph - 0.00 in Rain Light Rain
9:48 PM 42.8 °F 37.5 °F 41.0 °F 93% 29.35 in 2.0 mi NW 9.2 mph - 0.00 in Rain Light Rain
9:53 PM 42.1 °F 36.1 °F 41.0 °F 96% 29.36 in 2.0 mi NW 10.4 mph - 0.00 in Rain Light Rain
10:40 PM 39.0 °F 29.3 °F 37.0 °F 93% 29.43 in 3.0 mi NNW 19.6 mph 32.2 mph 0.00 in Rain Light Rain
10:53 PM 37.9 °F 27.6 °F 36.0 °F 93% 29.44 in 5.0 mi NNW 20.7 mph 32.2 mph 0.00 in Rain Light Rain
11:53 PM 37.9 °F 30.9 °F 36.0 °F 93% 29.51 in 10.0 mi NW 10.4 mph - 0.00 in   Overcast